| time (UTC) | temp F | wind direction | speed MPH | gust MPH | rain 1hr in | rain 24hr in | rain mn in | humidity % | barometer mb |
| 20260906193046 | 61 | 195 | 3.0 | 15.0 | 0.00 | 0.00 | 0.00 | 46 | 1019.7 |
| 20260906191545 | 62 | 199 | 4.0 | 15.0 | 0.00 | 0.00 | 0.00 | 43 | 1019.8 |
| 20260906190058 | 61 | 211 | 3.0 | 14.0 | 0.00 | 0.00 | 0.00 | 44 | 1019.7 |
| 20260906184550 | 62 | 212 | 6.0 | 15.0 | 0.00 | 0.00 | 0.00 | 43 | 1019.9 |
| 20260906183055 | 61 | 171 | 5.0 | 14.0 | 0.00 | 0.00 | 0.00 | 44 | 1020.0 |
| 20260906181549 | 61 | 150 | 3.0 | 10.0 | 0.00 | 0.00 | 0.00 | 44 | 1020.1 |
| 20260906180056 | 60 | 156 | 5.0 | 13.0 | 0.00 | 0.00 | 0.00 | 47 | 1020.1 |
| 20260906174603 | 59 | 152 | 3.0 | 14.0 | 0.00 | 0.00 | 0.00 | 49 | 1020.1 |
| 20260906173046 | 60 | 221 | 3.0 | 15.0 | 0.00 | 0.00 | 0.00 | 49 | 1020.1 |
| 20260906171546 | 59 | 178 | 5.0 | 11.0 | 0.00 | 0.00 | 0.00 | 51 | 1020.0 |
| 20260906170050 | 59 | 172 | 4.0 | 11.0 | 0.00 | 0.00 | 0.00 | 51 | 1020.0 |
| 20260906164546 | 57 | 223 | 2.0 | 11.0 | 0.00 | 0.00 | 0.00 | 54 | 1020.0 |
| 20260906163051 | 58 | 186 | 2.0 | 8.0 | 0.00 | 0.00 | 0.00 | 55 | 1020.1 |
| 20260906161548 | 58 | 232 | 2.0 | 14.0 | 0.00 | 0.00 | 0.00 | 56 | 1020.1 |
| 20260906160054 | 56 | 0 | 0.0 | 10.0 | 0.00 | 0.00 | 0.00 | 57 | 1020.1 |
| 20260906154550 | 55 | 242 | 0.0 | 5.0 | 0.00 | 0.00 | 0.00 | 60 | 1020.0 |
| 20260906153105 | 53 | 323 | 1.0 | 6.0 | 0.00 | 0.00 | 0.00 | 62 | 1020.1 |
| 20260906151544 | 52 | 0 | 0.0 | 3.0 | 0.00 | 0.00 | 0.00 | 62 | 1020.0 |
| 20260906150050 | 50 | 0 | 0.0 | 4.0 | 0.00 | 0.00 | 0.00 | 63 | 1020.0 |
| 20260906144553 | 51 | 0 | 0.0 | 3.0 | 0.00 | 0.00 | 0.00 | 59 | 1019.8 |
| 20260906143044 | 50 | 0 | 0.0 | 4.0 | 0.00 | 0.00 | 0.00 | 60 | 1019.6 |
| 20260906141547 | 49 | 0 | 0.0 | 4.0 | 0.00 | 0.00 | 0.00 | 62 | 1019.5 |
| 20260906140056 | 47 | 42 | 0.0 | 3.0 | 0.00 | 0.00 | 0.00 | 62 | 1019.4 |
| 20260906134550 | 47 | 42 | 0.0 | 3.0 | 0.00 | 0.00 | 0.00 | 63 | 1019.4 |
| 20260906133053 | 47 | 44 | 0.0 | 4.0 | 0.00 | 0.00 | 0.00 | 64 | 1019.2 |
| 20260906131545 | 46 | 0 | 0.0 | 2.0 | 0.00 | 0.00 | 0.00 | 66 | 1019.1 |
| 20260906130104 | 47 | 0 | 0.0 | 3.0 | 0.00 | 0.00 | 0.00 | 68 | 1018.9 |
| 20260906124551 | 47 | 0 | 0.0 | 2.0 | 0.00 | 0.00 | 0.00 | 70 | 1018.9 |
| 20260906123049 | 47 | 0 | 0.0 | 4.0 | 0.00 | 0.00 | 0.00 | 68 | 1019.0 |
| 20260906121549 | 47 | 0 | 0.0 | 6.0 | 0.00 | 0.00 | 0.00 | 69 | 1019.0 |
| 20260906120046 | 47 | 0 | 0.0 | 4.0 | 0.00 | 0.00 | 0.00 | 70 | 1019.1 |
| 20260906114558 | 47 | 0 | 0.0 | 4.0 | 0.00 | 0.00 | 0.00 | 71 | 1019.2 |
| 20260906113047 | 47 | 48 | 0.0 | 3.0 | 0.00 | 0.00 | 0.00 | 71 | 1019.1 |
| 20260906111555 | 47 | 0 | 0.0 | 4.0 | 0.00 | 0.00 | 0.00 | 71 | 1019.2 |
| 20260906110057 | 47 | 0 | 0.0 | 3.0 | 0.00 | 0.00 | 0.00 | 70 | 1019.2 |
| 20260906104551 | 47 | 0 | 0.0 | 3.0 | 0.00 | 0.00 | 0.00 | 70 | 1019.2 |
| 20260906103049 | 47 | 0 | 0.0 | 3.0 | 0.00 | 0.00 | 0.00 | 69 | 1019.5 |
| 20260906101547 | 47 | 0 | 0.0 | 4.0 | 0.00 | 0.00 | 0.00 | 69 | 1019.5 |
| 20260906100045 | 47 | 0 | 0.0 | 4.0 | 0.00 | 0.00 | 0.00 | 69 | 1019.5 |
| 20260906094551 | 47 | 49 | 0.0 | 4.0 | 0.00 | 0.00 | 0.00 | 69 | 1019.5 |
| 20260906093054 | 47 | 0 | 0.0 | 3.0 | 0.00 | 0.00 | 0.00 | 69 | 1019.6 |
| 20260906091544 | 48 | 49 | 0.0 | 4.0 | 0.00 | 0.00 | 0.00 | 70 | 1019.6 |
| 20260906090111 | 48 | 0 | 1.0 | 4.0 | 0.00 | 0.00 | 0.00 | 70 | 1019.6 |
| 20260906084556 | 48 | 0 | 0.0 | 5.0 | 0.00 | 0.00 | 0.00 | 71 | 1019.8 |
| 20260906083050 | 47 | 0 | 0.0 | 3.0 | 0.00 | 0.00 | 0.00 | 73 | 1019.9 |
| 20260906081552 | 47 | 0 | 1.0 | 3.0 | 0.00 | 0.00 | 0.00 | 73 | 1019.8 |
| 20260906080100 | 47 | 0 | 0.0 | 3.0 | 0.00 | 0.00 | 0.00 | 74 | 1019.9 |
| 20260906074606 | 47 | 0 | 0.0 | 2.0 | 0.00 | 0.00 | 0.00 | 74 | 1020.0 |
| 20260906073057 | 47 | 0 | 0.0 | 2.0 | 0.00 | 0.00 | 0.00 | 74 | 1020.0 |
| 20260906071548 | 48 | 50 | 0.0 | 2.0 | 0.00 | 0.00 | 0.00 | 74 | 1020.0 |
| 20260906070055 | 48 | 0 | 0.0 | 3.0 | 0.00 | 0.00 | 0.00 | 73 | 1020.1 |
| 20260906064546 | 48 | 0 | 0.0 | 3.0 | 0.00 | 0.00 | 0.00 | 72 | 1020.0 |
| 20260906063051 | 48 | 51 | 0.0 | 2.0 | 0.00 | 0.00 | 0.00 | 72 | 1020.2 |
| 20260906061602 | 49 | 0 | 0.0 | 5.0 | 0.00 | 0.00 | 0.00 | 72 | 1020.2 |
| 20260906060057 | 49 | 0 | 0.0 | 2.0 | 0.00 | 0.00 | 0.00 | 72 | 1020.4 |
| 20260906054557 | 49 | 0 | 0.0 | 3.0 | 0.00 | 0.00 | 0.00 | 71 | 1020.3 |
| 20260906053053 | 49 | 0 | 0.0 | 3.0 | 0.00 | 0.00 | 0.00 | 69 | 1020.4 |
| 20260906051546 | 49 | 17 | 0.0 | 4.0 | 0.00 | 0.00 | 0.00 | 68 | 1020.4 |
| 20260906050108 | 49 | 0 | 0.0 | 5.0 | 0.00 | 0.00 | 0.00 | 66 | 1020.5 |
| 20260906044553 | 50 | 13 | 0.0 | 4.0 | 0.00 | 0.00 | 0.00 | 65 | 1020.5 |
| 20260906043104 | 50 | 0 | 0.0 | 4.0 | 0.00 | 0.00 | 0.00 | 65 | 1020.3 |
| 20260906041550 | 50 | 0 | 0.0 | 5.0 | 0.00 | 0.00 | 0.00 | 65 | 1020.2 |
| 20260906040106 | 50 | 304 | 0.0 | 4.0 | 0.00 | 0.00 | 0.00 | 65 | 1020.0 |
| 20260906034553 | 50 | 0 | 0.0 | 5.0 | 0.00 | 0.00 | 0.00 | 65 | 1019.8 |
| 20260906033052 | 50 | 0 | 0.0 | 6.0 | 0.00 | 0.00 | 0.00 | 65 | 1019.5 |
| 20260906031545 | 51 | 0 | 0.0 | 2.0 | 0.00 | 0.00 | 0.00 | 64 | 1019.4 |
| 20260906030107 | 51 | 0 | 0.0 | 6.0 | 0.00 | 0.00 | 0.00 | 65 | 1019.6 |
| 20260906024551 | 51 | 0 | 0.0 | 2.0 | 0.00 | 0.00 | 0.00 | 64 | 1019.6 |
| 20260906023102 | 52 | 0 | 0.0 | 3.0 | 0.00 | 0.00 | 0.00 | 63 | 1019.6 |
| 20260906021546 | 53 | 257 | 0.0 | 3.0 | 0.00 | 0.00 | 0.00 | 62 | 1019.3 |
| 20260906020056 | 53 | 0 | 0.0 | 5.0 | 0.00 | 0.00 | 0.00 | 61 | 1019.3 |
| 20260906014604 | 54 | 0 | 0.0 | 4.0 | 0.00 | 0.00 | 0.00 | 59 | 1019.4 |
| 20260906013047 | 55 | 0 | 0.0 | 6.0 | 0.00 | 0.00 | 0.00 | 57 | 1019.4 |
| 20260906011559 | 55 | 189 | 1.0 | 4.0 | 0.00 | 0.00 | 0.00 | 55 | 1019.4 |
| 20260906010057 | 56 | 0 | 0.0 | 3.0 | 0.00 | 0.00 | 0.00 | 55 | 1019.7 |
| 20260906004546 | 56 | 0 | 0.0 | 4.0 | 0.00 | 0.00 | 0.00 | 54 | 1019.8 |
| 20260906003049 | 57 | 0 | 0.0 | 6.0 | 0.00 | 0.00 | 0.00 | 54 | 1019.8 |
| 20260906001543 | 57 | 0 | 0.0 | 8.0 | 0.00 | 0.00 | 0.00 | 53 | 1019.6 |
| 20260906000104 | 57 | 184 | 1.0 | 13.0 | 0.00 | 0.00 | 0.00 | 52 | 1019.8 |
| 20260905234556 | 58 | 188 | 2.0 | 11.0 | 0.00 | 0.00 | 0.00 | 52 | 1019.8 |
| 20260905233046 | 58 | 195 | 2.0 | 10.0 | 0.00 | 0.00 | 0.00 | 52 | 1019.6 |
| 20260905231554 | 58 | 186 | 3.0 | 10.0 | 0.00 | 0.00 | 0.00 | 51 | 1019.7 |
| 20260905230051 | 59 | 249 | 1.0 | 10.0 | 0.00 | 0.00 | 0.00 | 48 | 1019.8 |
| 20260905224600 | 61 | 194 | 3.0 | 12.0 | 0.00 | 0.00 | 0.00 | 47 | 1019.8 |
| 20260905223045 | 60 | 201 | 0.0 | 19.0 | 0.00 | 0.00 | 0.00 | 49 | 1019.8 |
| 20260905221553 | 62 | 166 | 1.0 | 10.0 | 0.00 | 0.00 | 0.00 | 46 | 1019.8 |
| 20260905220047 | 61 | 163 | 3.0 | 14.0 | 0.00 | 0.00 | 0.00 | 48 | 1019.9 |
| 20260905214546 | 62 | 178 | 3.0 | 13.0 | 0.00 | 0.00 | 0.00 | 46 | 1019.8 |
| 20260905213054 | 62 | 183 | 6.0 | 15.0 | 0.00 | 0.00 | 0.00 | 44 | 1019.8 |
| 20260905211545 | 61 | 220 | 3.0 | 10.0 | 0.00 | 0.00 | 0.00 | 45 | 1019.9 |
| 20260905210045 | 61 | 181 | 4.0 | 11.0 | 0.00 | 0.00 | 0.00 | 46 | 1020.0 |
| 20260905204555 | 60 | 251 | 3.0 | 10.0 | 0.00 | 0.00 | 0.00 | 47 | 1020.1 |
| 20260905203059 | 61 | 190 | 6.0 | 13.0 | 0.00 | 0.00 | 0.00 | 44 | 1020.2 |
| 20260905201547 | 61 | 189 | 3.0 | 13.0 | 0.00 | 0.00 | 0.00 | 48 | 1020.2 |
| 20260905200052 | 61 | 227 | 1.0 | 11.0 | 0.00 | 0.00 | 0.00 | 46 | 1020.1 |
| 20260905194542 | 60 | 205 | 3.0 | 11.0 | 0.00 | 0.00 | 0.00 | 48 | 1020.1 |